Location: Jesenik
(50.2330°N, 17.2000°E)
Time: 02:38:31
(UTC+02:00)

ISS - Pass Details

Date: 02 April 2019
Orbit: 408 x 410 km, 51.6° (Epoch: 23 April)

Event Time Altitude Azimuth Distance (km) Brightness Sun altitude
Rises 20:55:57 0° 286° (WNW) 2,339 1.8 -14.7°
Reaches altitude 10° 20:58:03 10° 284° (WNW) 1,475 0.3 -15.0°
Maximum altitude 21:01:20 65° 202° (SSW) 455 -3.7 -15.5°
Enters shadow 21:02:24 38° 135° (SE) 643 -3.3 -15.6°
